2024-128G

Last updated on Fri Aug 09 2024 00:02:03 GMT+0000 (Coordinated Universal Time)

1 60241U 24128G 24221.58550394 .00007595 00000+0 66787-3 0 9992 2 60241 61.9945 58.7914 0011627 307.3183 52.6845 14.97235949 4451

Satellite not in orbit